contact:dominique.lefevre@mio.osupytheas.fr, maurice.libes@osupytheas.fr, didier.mallarino@osupytheas.fr
Project:EMSO http://www.emso-fr.org/EMSO-France
Depth: 2436.0 m
Title:EMSO Ligure Ouest : Data MII capteur AQUADOPP
Date,Latitude,Longitude,X_East,Y_North,Z_Up,Amplitude_X,Amplitude_Y,Amplitude_Z,Batterie,SoundSpeed,Heading,Pitch,Roll,Pressure,TIS,Speed,Direction
, degrees North, degrees East, m.s-1, m.s-1,m.s-1, 1, 1, 1, Volt, m.s-1, degree, degree, degree, dbar, degree_C, m.s-1, degree
2020-09-22T00:04:03,42.805,6.029,0.002,-0.034,-0.005,104.0,106.0,102.0,13.3,1505.2,326.8,-0.7,1.8,2470.487,13.3,0.034,176.6
2020-09-22T00:10:03,42.805,6.029,0.037,-0.029,0.032,105.0,106.0,102.0,13.4,1505.2,327.9,-0.7,1.8,2470.501,13.3,0.047,128.1
2020-09-22T00:13:03,42.805,6.029,0.019,-0.031,-0.046,105.0,106.0,101.0,13.3,1505.3,326.7,-0.8,1.8,2470.507,13.31,0.036,148.5
2020-09-22T00:16:02,42.805,6.029,0.022,-0.024,0.015,104.0,107.0,102.0,13.3,1505.3,323.0,-0.7,1.8,2470.521,13.31,0.032,137.5
2020-09-22T00:19:02,42.805,6.029,0.001,-0.036,-0.025,104.0,106.0,101.0,13.3,1505.3,326.2,-0.7,1.8,2470.501,13.32,0.036,178.4
2020-09-22T00:22:03,42.805,6.029,-0.019,-0.024,-0.027,104.0,106.0,102.0,13.3,1505.3,324.1,-0.7,1.8,2470.444,13.32,0.03,218.4
2020-09-22T00:25:03,42.805,6.029,0.04,-0.039,0.012,104.0,105.0,103.0,13.3,1505.3,328.2,-0.7,1.8,2470.439,13.32,0.055,134.3
2020-09-22T00:28:03,42.805,6.029,0.026,-0.03,-0.007,102.0,105.0,103.0,13.4,1505.3,325.5,-0.7,1.8,2470.465,13.32,0.039,139.1
2020-09-22T00:31:03,42.805,6.029,0.028,-0.03,-0.002,104.0,105.0,103.0,13.4,1505.3,324.8,-0.8,1.8,2470.445,13.32,0.041,137.0
2020-09-22T00:34:03,42.805,6.029,0.021,-0.048,0.013,105.0,106.0,102.0,13.3,1505.3,327.2,-0.7,1.8,2470.456,13.32,0.052,156.4
2020-09-22T00:37:03,42.805,6.029,0.025,-0.038,0.017,105.0,105.0,102.0,13.4,1505.3,326.5,-0.7,1.8,2470.442,13.32,0.045,146.7
2020-09-22T00:40:05,42.805,6.029,-0.011,-0.036,-0.02,104.0,106.0,102.0,13.4,1505.3,326.2,-0.7,1.8,2470.412,13.32,0.037,197.0
2020-09-22T00:43:02,42.805,6.029,0.007,-0.04,-0.03,105.0,105.0,102.0,13.4,1505.3,324.6,-0.7,1.8,2470.424,13.32,0.04,170.1
2020-09-22T00:46:03,42.805,6.029,0.003,-0.039,-0.051,104.0,105.0,102.0,13.4,1505.3,326.6,-0.7,1.8,2470.418,13.32,0.039,175.6
2020-09-22T00:49:03,42.805,6.029,0.027,-0.027,0.002,105.0,105.0,101.0,13.3,1505.3,323.0,-0.7,1.8,2470.416,13.32,0.038,135.0
2020-09-22T00:52:03,42.805,6.029,0.032,-0.042,0.0,104.0,105.0,102.0,13.4,1505.3,328.1,-0.7,1.8,2470.429,13.32,0.052,142.7
2020-09-22T00:55:03,42.805,6.029,0.011,-0.05,-0.017,105.0,106.0,101.0,13.3,1505.3,327.2,-0.7,1.9,2470.46,13.32,0.051,167.6
2020-09-22T00:58:03,42.805,6.029,0.008,-0.016,-0.006,103.0,106.0,101.0,13.3,1505.3,325.3,-0.7,1.8,2470.492,13.32,0.017,153.4
2020-09-22T01:04:03,42.805,6.029,0.04,-0.035,0.011,103.0,106.0,102.0,13.4,1505.2,323.4,-0.8,1.8,2470.482,13.3,0.053,131.2
2020-09-22T01:07:03,42.805,6.029,0.026,-0.023,0.02,103.0,106.0,102.0,13.4,1505.3,322.5,-0.7,1.8,2470.479,13.31,0.034,131.5
2020-09-22T01:10:03,42.805,6.029,0.017,-0.048,-0.019,102.0,106.0,102.0,13.4,1505.3,323.9,-0.7,1.8,2470.418,13.32,0.05,160.5
2020-09-22T01:13:03,42.805,6.029,-0.035,-0.048,-0.034,104.0,105.0,103.0,13.4,1505.3,323.3,-0.7,1.8,2470.436,13.32,0.059,216.1
2020-09-22T01:16:03,42.805,6.029,-0.002,-0.048,-0.018,104.0,106.0,102.0,13.3,1505.3,324.1,-0.7,1.8,2470.423,13.32,0.048,182.4
2020-09-22T01:19:03,42.805,6.029,0.014,-0.042,-0.002,105.0,106.0,103.0,13.3,1505.3,324.2,-0.7,1.8,2470.44,13.32,0.044,161.6
2020-09-22T01:22:03,42.805,6.029,-0.002,-0.022,0.0,104.0,105.0,102.0,13.3,1505.3,326.6,-0.7,1.8,2470.402,13.32,0.022,185.2
2020-09-22T01:25:03,42.805,6.029,0.004,-0.031,-0.05,102.0,105.0,103.0,13.4,1505.3,328.5,-0.7,1.8,2470.391,13.32,0.031,172.7
2020-09-22T01:28:03,42.805,6.029,0.017,-0.046,-0.023,104.0,107.0,101.0,13.4,1505.3,326.8,-0.7,1.8,2470.419,13.33,0.049,159.7
2020-09-22T01:31:03,42.805,6.029,-0.005,-0.03,-0.014,104.0,106.0,103.0,13.3,1505.3,325.2,-0.7,1.8,2470.39,13.32,0.03,189.5
2020-09-22T01:34:03,42.805,6.029,-0.028,-0.037,-0.048,104.0,106.0,102.0,13.4,1505.3,326.7,-0.7,1.8,2470.387,13.32,0.046,217.1
2020-09-22T01:37:02,42.805,6.029,-0.011,-0.031,-0.028,104.0,106.0,101.0,13.3,1505.3,326.7,-0.7,1.8,2470.366,13.32,0.032,199.5
2020-09-22T01:40:03,42.805,6.029,0.007,-0.045,-0.01,104.0,105.0,102.0,13.4,1505.3,326.5,-0.7,1.9,2470.384,13.32,0.045,171.2
2020-09-22T01:43:02,42.805,6.029,-0.022,-0.024,-0.025,103.0,106.0,102.0,13.3,1505.3,325.3,-0.7,1.8,2470.363,13.32,0.032,222.5
2020-09-22T01:46:03,42.805,6.029,0.018,-0.035,-0.02,103.0,104.0,101.0,13.3,1505.3,325.2,-0.7,1.8,2470.368,13.32,0.039,152.8
2020-09-22T01:49:03,42.805,6.029,0.004,-0.027,-0.009,101.0,104.0,102.0,13.4,1505.3,328.0,-0.7,1.8,2470.354,13.32,0.027,171.6
2020-09-22T01:52:03,42.805,6.029,0.021,-0.051,0.007,105.0,105.0,102.0,13.4,1505.3,325.5,-0.7,1.8,2470.376,13.33,0.055,157.6
2020-09-22T01:55:03,42.805,6.029,0.008,-0.019,0.009,104.0,105.0,101.0,13.3,1505.3,325.4,-0.7,1.8,2470.354,13.33,0.02,157.2
2020-09-22T01:58:03,42.805,6.029,0.02,-0.014,-0.005,104.0,104.0,102.0,13.4,1505.3,328.1,-0.7,1.8,2470.368,13.33,0.024,125.0
2020-09-22T02:04:03,42.805,6.029,0.002,-0.038,-0.036,105.0,106.0,101.0,13.4,1505.3,325.9,-0.7,1.8,2470.388,13.31,0.038,177.0
2020-09-22T02:07:03,42.805,6.029,0.002,-0.022,-0.02,105.0,106.0,102.0,13.4,1505.3,324.6,-0.7,1.8,2470.406,13.31,0.022,174.8
2020-09-22T02:10:03,42.805,6.029,0.004,-0.025,-0.003,104.0,107.0,102.0,13.4,1505.3,324.9,-0.7,1.8,2470.392,13.32,0.025,170.9
2020-09-22T02:13:03,42.805,6.029,-0.011,-0.034,-0.033,103.0,106.0,101.0,13.4,1505.3,325.7,-0.7,1.8,2470.38,13.32,0.035,197.9
2020-09-22T02:16:03,42.805,6.029,0.035,-0.032,-0.023,106.0,104.0,102.0,13.3,1505.3,326.2,-0.7,1.8,2470.37,13.32,0.047,132.4
2020-09-22T02:19:03,42.805,6.029,0.034,-0.011,0.003,104.0,105.0,101.0,13.4,1505.3,322.9,-0.7,1.9,2470.359,13.32,0.035,107.9
2020-09-22T02:22:03,42.805,6.029,0.021,-0.043,-0.022,104.0,106.0,102.0,13.4,1505.3,325.0,-0.7,1.8,2470.405,13.32,0.047,154.0
2020-09-22T02:25:03,42.805,6.029,0.039,-0.031,0.0,104.0,105.0,102.0,13.4,1505.3,326.6,-0.7,1.8,2470.343,13.32,0.049,128.5
2020-09-22T02:28:03,42.805,6.029,0.031,-0.035,0.0,104.0,105.0,101.0,13.4,1505.3,325.7,-0.7,1.8,2470.375,13.32,0.046,138.5
2020-09-22T02:31:03,42.805,6.029,0.011,-0.041,0.009,105.0,104.0,102.0,13.4,1505.3,327.0,-0.7,1.8,2470.323,13.33,0.042,165.0
2020-09-22T02:34:03,42.805,6.029,-0.013,-0.029,-0.019,102.0,105.0,103.0,13.4,1505.3,323.5,-0.7,1.8,2470.37,13.32,0.031,204.1
2020-09-22T02:37:03,42.805,6.029,0.023,-0.038,-0.001,103.0,105.0,102.0,13.4,1505.3,326.6,-0.7,1.8,2470.378,13.32,0.044,148.8
2020-09-22T02:40:03,42.805,6.029,0.037,-0.031,0.024,105.0,105.0,101.0,13.4,1505.3,327.2,-0.7,1.8,2470.369,13.32,0.048,130.0
2020-09-22T02:43:03,42.805,6.029,0.035,-0.013,-0.016,104.0,105.0,101.0,13.3,1505.3,324.0,-0.7,1.9,2470.346,13.33,0.037,110.4
2020-09-22T02:46:03,42.805,6.029,0.028,-0.008,0.012,104.0,106.0,101.0,13.4,1505.3,323.3,-0.7,1.8,2470.348,13.32,0.029,105.9
2020-09-22T02:49:03,42.805,6.029,-0.012,-0.026,-0.049,105.0,105.0,101.0,13.4,1505.3,327.7,-0.7,1.8,2470.353,13.32,0.028,204.8
2020-09-22T02:52:03,42.805,6.029,0.032,-0.029,0.0,103.0,105.0,101.0,13.4,1505.3,324.4,-0.7,1.8,2470.35,13.32,0.043,132.2
2020-09-22T02:55:02,42.805,6.029,0.018,-0.045,-0.005,105.0,104.0,101.0,13.4,1505.3,326.0,-0.7,1.8,2470.353,13.32,0.048,158.2
2020-09-22T02:58:03,42.805,6.029,-0.003,-0.022,-0.022,103.0,106.0,101.0,13.3,1505.3,326.2,-0.7,1.8,2470.332,13.32,0.022,187.8
2020-09-22T03:04:03,42.805,6.029,-0.011,-0.036,-0.017,103.0,104.0,102.0,13.4,1505.2,328.1,-0.7,1.8,2470.395,13.3,0.037,197.0
2020-09-22T03:07:03,42.805,6.029,-0.011,-0.032,-0.017,103.0,106.0,101.0,13.4,1505.3,323.1,-0.7,1.8,2470.368,13.31,0.033,199.0
2020-09-22T03:10:03,42.805,6.029,0.0,-0.045,-0.027,103.0,105.0,102.0,13.4,1505.3,325.2,-0.7,1.8,2470.384,13.32,0.045,180.0
2020-09-22T03:13:03,42.805,6.029,0.012,-0.04,-0.016,106.0,106.0,101.0,13.3,1505.3,325.6,-0.8,1.9,2470.348,13.32,0.041,163.3
2020-09-22T03:16:03,42.805,6.029,-0.011,-0.034,-0.001,104.0,105.0,101.0,13.4,1505.3,327.8,-0.7,1.8,2470.381,13.32,0.035,197.9
2020-09-22T03:19:03,42.805,6.029,0.004,-0.035,-0.027,104.0,105.0,102.0,13.4,1505.3,322.7,-0.7,1.8,2470.351,13.32,0.035,173.5
2020-09-22T03:22:02,42.805,6.029,0.04,-0.05,-0.011,103.0,104.0,102.0,13.3,1505.3,324.5,-0.7,1.8,2470.342,13.32,0.064,141.3
2020-09-22T03:25:02,42.805,6.029,0.015,-0.038,0.015,103.0,106.0,102.0,13.4,1505.3,326.2,-0.7,1.8,2470.334,13.32,0.04,158.5
2020-09-22T03:28:03,42.805,6.029,-0.002,-0.037,-0.057,104.0,106.0,102.0,13.4,1505.3,326.4,-0.7,1.8,2470.355,13.32,0.037,183.1
2020-09-22T03:31:03,42.805,6.029,0.0,-0.032,-0.007,103.0,106.0,101.0,13.4,1505.3,324.8,-0.7,1.8,2470.329,13.32,0.032,180.0
2020-09-22T03:34:03,42.805,6.029,-0.013,-0.039,-0.052,104.0,106.0,101.0,13.4,1505.3,324.9,-0.7,1.9,2470.333,13.32,0.041,198.4
2020-09-22T03:37:03,42.805,6.029,-0.005,-0.037,-0.031,104.0,107.0,101.0,13.4,1505.3,325.0,-0.7,1.8,2470.334,13.32,0.037,187.7
2020-09-22T03:40:03,42.805,6.029,0.018,-0.051,-0.023,104.0,106.0,102.0,13.4,1505.3,325.2,-0.7,1.8,2470.345,13.32,0.054,160.6
2020-09-22T03:43:03,42.805,6.029,0.024,-0.041,0.016,105.0,106.0,102.0,13.3,1505.3,324.2,-0.7,1.8,2470.36,13.32,0.047,149.7
2020-09-22T03:46:02,42.805,6.029,-0.014,-0.037,-0.002,103.0,106.0,102.0,13.3,1505.3,326.4,-0.7,1.8,2470.302,13.32,0.039,200.7
2020-09-22T03:49:03,42.805,6.029,0.025,-0.04,0.001,104.0,105.0,103.0,13.4,1505.3,327.1,-0.7,1.9,2470.317,13.32,0.047,148.0
2020-09-22T03:52:03,42.805,6.029,-0.005,-0.04,-0.016,104.0,106.0,102.0,13.4,1505.3,322.9,-0.7,1.8,2470.317,13.32,0.04,187.1
2020-09-22T03:55:03,42.805,6.029,0.008,-0.053,-0.018,105.0,105.0,102.0,13.4,1505.3,327.9,-0.7,1.9,2470.293,13.32,0.053,171.4
2020-09-22T03:58:03,42.805,6.029,0.017,-0.025,-0.003,105.0,105.0,102.0,13.4,1505.3,326.9,-0.7,1.8,2470.307,13.32,0.03,145.8
2020-09-22T04:04:03,42.805,6.029,-0.009,-0.023,-0.033,104.0,106.0,101.0,13.3,1505.2,323.9,-0.7,1.8,2470.342,13.3,0.024,201.4
2020-09-22T04:07:03,42.805,6.029,0.022,-0.025,-0.013,105.0,107.0,101.0,13.4,1505.3,324.1,-0.7,1.8,2470.365,13.31,0.033,138.7
2020-09-22T04:10:03,42.805,6.029,0.0,-0.028,-0.04,103.0,108.0,102.0,13.4,1505.3,322.8,-0.7,1.8,2470.327,13.32,0.028,180.0
2020-09-22T04:13:03,42.805,6.029,-0.014,-0.038,-0.014,104.0,107.0,102.0,13.4,1505.3,327.0,-0.7,1.8,2470.382,13.32,0.04,200.2
2020-09-22T04:16:03,42.805,6.029,0.039,-0.032,-0.017,103.0,105.0,102.0,13.3,1505.3,324.7,-0.7,1.8,2470.286,13.32,0.05,129.4
2020-09-22T04:19:03,42.805,6.029,0.064,-0.034,0.02,103.0,106.0,101.0,13.4,1505.3,328.2,-0.7,1.8,2470.322,13.32,0.072,118.0
2020-09-22T04:22:03,42.805,6.029,0.033,-0.016,0.022,104.0,106.0,101.0,13.4,1505.3,324.5,-0.7,1.8,2470.332,13.32,0.036,115.9
2020-09-22T04:25:03,42.805,6.029,0.002,-0.031,-0.025,103.0,105.0,102.0,13.4,1505.3,327.7,-0.7,1.8,2470.307,13.32,0.031,176.3
2020-09-22T04:28:03,42.805,6.029,0.011,-0.028,0.0,104.0,105.0,102.0,13.4,1505.3,325.9,-0.7,1.8,2470.325,13.32,0.03,158.6
2020-09-22T04:31:03,42.805,6.029,0.011,-0.031,-0.018,103.0,106.0,102.0,13.3,1505.3,328.6,-0.7,1.8,2470.297,13.32,0.032,160.5
2020-09-22T04:34:03,42.805,6.029,0.009,-0.027,-0.02,103.0,106.0,101.0,13.4,1505.3,324.2,-0.7,1.8,2470.334,13.32,0.028,161.6
2020-09-22T04:37:03,42.805,6.029,0.005,-0.036,-0.033,104.0,106.0,101.0,13.3,1505.3,324.7,-0.7,1.8,2470.304,13.32,0.036,172.1
2020-09-22T04:40:02,42.805,6.029,-0.006,-0.032,-0.035,104.0,106.0,103.0,13.4,1505.3,327.8,-0.7,1.9,2470.304,13.32,0.032,190.6
2020-09-22T04:43:03,42.805,6.029,-0.018,-0.021,-0.042,104.0,106.0,101.0,13.4,1505.3,323.5,-0.7,1.9,2470.288,13.32,0.027,220.6
2020-09-22T04:46:02,42.805,6.029,0.023,-0.046,-0.028,104.0,106.0,102.0,13.4,1505.3,326.8,-0.7,1.8,2470.328,13.32,0.051,153.4
2020-09-22T04:49:03,42.805,6.029,-0.038,-0.02,-0.03,104.0,105.0,102.0,13.4,1505.3,326.5,-0.7,1.8,2470.305,13.32,0.042,242.2
2020-09-22T04:52:03,42.805,6.029,0.004,-0.031,-0.037,104.0,105.0,103.0,13.4,1505.3,324.8,-0.7,1.8,2470.343,13.32,0.031,172.7
2020-09-22T04:55:03,42.805,6.029,0.017,-0.023,0.005,103.0,105.0,104.0,13.3,1505.3,323.7,-0.7,1.8,2470.326,13.32,0.028,143.5
2020-09-22T04:58:03,42.805,6.029,0.017,-0.043,0.003,105.0,105.0,102.0,13.4,1505.3,326.0,-0.7,1.8,2470.305,13.32,0.046,158.4
2020-09-22T05:04:03,42.805,6.029,0.029,-0.015,-0.017,105.0,105.0,102.0,13.4,1505.2,324.5,-0.7,1.8,2470.368,13.3,0.032,117.4
2020-09-22T05:07:02,42.805,6.029,0.002,-0.032,-0.017,103.0,105.0,101.0,13.4,1505.3,325.9,-0.7,1.8,2470.339,13.31,0.032,176.4
2020-09-22T05:10:03,42.805,6.029,0.01,-0.034,-0.002,105.0,105.0,101.0,13.3,1505.3,327.6,-0.7,1.9,2470.329,13.32,0.035,163.6
2020-09-22T05:13:03,42.805,6.029,0.02,-0.038,-0.002,104.0,106.0,102.0,13.3,1505.3,325.1,-0.7,1.8,2470.345,13.32,0.042,152.2
2020-09-22T05:16:02,42.805,6.029,0.003,-0.035,-0.013,105.0,105.0,103.0,13.4,1505.3,325.7,-0.7,1.9,2470.309,13.32,0.035,175.1
2020-09-22T05:19:03,42.805,6.029,0.002,-0.022,-0.004,105.0,107.0,103.0,13.4,1505.3,323.2,-0.7,1.9,2470.332,13.32,0.022,174.8
2020-09-22T05:22:03,42.805,6.029,0.026,-0.032,-0.013,104.0,106.0,102.0,13.4,1505.3,326.3,-0.7,1.8,2470.368,13.32,0.041,140.9
2020-09-22T05:25:03,42.805,6.029,0.044,-0.025,0.035,104.0,106.0,102.0,13.4,1505.3,325.6,-0.7,1.9,2470.324,13.32,0.05,119.6
2020-09-22T05:28:03,42.805,6.029,-0.01,-0.021,-0.051,103.0,105.0,102.0,13.3,1505.3,325.9,-0.7,1.8,2470.279,13.32,0.023,205.5
2020-09-22T05:31:03,42.805,6.029,-0.008,-0.038,-0.026,105.0,105.0,101.0,13.4,1505.3,325.1,-0.7,1.8,2470.326,13.32,0.038,191.9
2020-09-22T05:34:03,42.805,6.029,-0.004,-0.013,0.0,104.0,106.0,101.0,13.3,1505.3,326.4,-0.7,1.8,2470.291,13.32,0.013,197.1
2020-09-22T05:37:03,42.805,6.029,0.003,-0.024,-0.014,106.0,106.0,103.0,13.4,1505.3,326.9,-0.7,1.8,2470.319,13.32,0.024,172.9
2020-09-22T05:40:03,42.805,6.029,-0.018,-0.037,-0.023,103.0,105.0,102.0,13.4,1505.3,324.3,-0.7,1.8,2470.309,13.32,0.041,205.9
2020-09-22T05:43:03,42.805,6.029,0.018,-0.035,0.002,104.0,105.0,103.0,13.4,1505.3,328.1,-0.7,1.8,2470.278,13.32,0.039,152.8
2020-09-22T05:46:03,42.805,6.029,0.011,-0.024,-0.005,104.0,106.0,103.0,13.4,1505.3,323.7,-0.7,1.8,2470.283,13.32,0.026,155.4
2020-09-22T05:49:03,42.805,6.029,0.015,-0.041,0.002,103.0,105.0,102.0,13.4,1505.3,327.9,-0.7,1.8,2470.339,13.32,0.043,159.9
2020-09-22T05:52:03,42.805,6.029,0.026,-0.023,-0.002,104.0,106.0,102.0,13.3,1505.3,326.6,-0.7,1.8,2470.303,13.32,0.034,131.5
2020-09-22T05:55:02,42.805,6.029,0.017,-0.045,-0.016,103.0,106.0,102.0,13.4,1505.3,326.6,-0.7,1.8,2470.316,13.32,0.048,159.3
2020-09-22T06:04:03,42.805,6.029,0.008,-0.046,-0.02,105.0,106.0,102.0,13.4,1505.2,323.6,-0.7,1.8,2470.418,13.29,0.046,170.1
2020-09-22T06:07:03,42.805,6.029,0.013,-0.038,0.02,104.0,105.0,102.0,13.3,1505.2,327.0,-0.7,1.8,2470.368,13.3,0.04,161.1
2020-09-22T06:10:03,42.805,6.029,0.011,-0.016,0.0,104.0,107.0,103.0,13.4,1505.3,324.8,-0.7,1.8,2470.342,13.31,0.019,145.5
2020-09-22T06:13:03,42.805,6.029,0.017,-0.037,-0.001,104.0,106.0,102.0,13.4,1505.3,326.5,-0.7,1.8,2470.362,13.32,0.04,155.3
2020-09-22T06:16:04,42.805,6.029,-0.001,-0.031,-0.045,105.0,106.0,102.0,13.4,1505.3,326.3,-0.7,1.8,2470.354,13.32,0.031,181.8
2020-09-22T06:19:03,42.805,6.029,0.018,-0.047,-0.012,105.0,107.0,101.0,13.3,1505.3,324.5,-0.7,1.8,2470.353,13.32,0.05,159.0
2020-09-22T06:22:03,42.805,6.029,0.0,-0.009,-0.01,106.0,105.0,102.0,13.4,1505.3,327.2,-0.7,1.8,2470.306,13.32,0.009,180.0
2020-09-22T06:25:03,42.805,6.029,0.031,-0.04,0.012,104.0,106.0,103.0,13.3,1505.3,325.1,-0.7,1.8,2470.324,13.32,0.05,142.2
2020-09-22T06:28:03,42.805,6.029,-0.003,-0.019,-0.006,103.0,105.0,101.0,13.3,1505.3,327.7,-0.7,1.8,2470.325,13.32,0.019,189.0
2020-09-22T06:31:03,42.805,6.029,0.019,-0.029,0.004,104.0,107.0,102.0,13.4,1505.3,323.3,-0.7,1.8,2470.378,13.32,0.034,146.8
2020-09-22T06:34:03,42.805,6.029,0.003,-0.019,-0.006,104.0,105.0,103.0,13.4,1505.3,324.7,-0.7,1.8,2470.353,13.32,0.019,171.0
2020-09-22T06:37:03,42.805,6.029,0.019,-0.029,-0.016,103.0,105.0,103.0,13.4,1505.3,326.8,-0.7,1.8,2470.399,13.32,0.034,146.8
2020-09-22T06:40:03,42.805,6.029,0.013,-0.028,-0.017,106.0,105.0,102.0,13.4,1505.3,323.4,-0.7,1.9,2470.338,13.32,0.03,155.1
2020-09-22T06:43:03,42.805,6.029,0.013,-0.039,-0.002,104.0,105.0,102.0,13.3,1505.3,323.8,-0.7,1.8,2470.346,13.32,0.041,161.6
2020-09-22T06:46:03,42.805,6.029,0.012,-0.04,-0.006,104.0,106.0,102.0,13.4,1505.3,324.0,-0.7,1.8,2470.348,13.32,0.041,163.3
2020-09-22T06:49:03,42.805,6.029,0.023,-0.03,-0.008,104.0,107.0,102.0,13.4,1505.3,323.4,-0.7,1.8,2470.344,13.32,0.037,142.5
2020-09-22T06:52:03,42.805,6.029,0.023,-0.024,0.015,104.0,106.0,102.0,13.4,1505.3,326.1,-0.7,1.8,2470.347,13.32,0.033,136.2
2020-09-22T06:55:04,42.805,6.029,0.02,-0.01,0.003,103.0,105.0,101.0,13.4,1505.3,325.0,-0.7,1.8,2470.338,13.32,0.022,116.6
2020-09-22T06:58:03,42.805,6.029,0.047,-0.03,0.021,105.0,105.0,103.0,13.4,1505.3,327.1,-0.7,1.8,2470.344,13.32,0.055,122.6
2020-09-22T07:04:03,42.805,6.029,0.033,-0.021,-0.016,105.0,106.0,102.0,13.3,1505.2,326.7,-0.7,1.8,2470.387,13.3,0.039,122.5
2020-09-22T07:07:02,42.805,6.029,0.049,-0.019,-0.007,104.0,107.0,102.0,13.4,1505.3,323.0,-0.7,1.8,2470.372,13.31,0.052,111.2
2020-09-22T07:10:03,42.805,6.029,0.027,-0.04,0.0,103.0,105.0,101.0,13.4,1505.3,326.0,-0.7,1.8,2470.393,13.32,0.048,146.0
2020-09-22T07:13:03,42.805,6.029,0.056,-0.044,0.014,105.0,106.0,102.0,13.3,1505.3,324.9,-0.7,1.9,2470.377,13.32,0.071,128.2
2020-09-22T07:16:03,42.805,6.029,0.045,-0.031,0.007,102.0,105.0,102.0,13.4,1505.3,327.7,-0.7,1.8,2470.361,13.32,0.054,124.6
2020-09-22T07:19:02,42.805,6.029,0.018,-0.01,0.025,107.0,105.0,102.0,13.4,1505.3,323.3,-0.8,1.8,2470.336,13.32,0.02,119.1
2020-09-22T07:22:03,42.805,6.029,0.006,-0.035,-0.007,107.0,107.0,103.0,13.4,1505.3,325.1,-0.7,1.8,2470.363,13.32,0.035,170.3
2020-09-22T07:25:04,42.805,6.029,0.02,-0.027,0.026,104.0,106.0,102.0,13.4,1505.3,326.9,-0.7,1.8,2470.382,13.32,0.033,143.5
2020-09-22T07:28:03,42.805,6.029,0.03,-0.038,0.01,105.0,107.0,102.0,13.4,1505.3,326.7,-0.7,1.8,2470.344,13.32,0.048,141.7
2020-09-22T07:31:03,42.805,6.029,0.058,-0.017,0.05,106.0,106.0,101.0,13.4,1505.3,325.2,-0.7,1.8,2470.404,13.32,0.06,106.3
2020-09-22T07:34:03,42.805,6.029,0.037,-0.033,0.022,104.0,104.0,105.0,13.4,1505.3,324.5,-0.7,1.8,2470.365,13.32,0.049,131.7
2020-09-22T07:37:02,42.805,6.029,0.009,-0.045,0.01,106.0,107.0,103.0,13.3,1505.3,326.0,-0.7,1.8,2470.387,13.32,0.045,168.7
2020-09-22T07:40:03,42.805,6.029,0.043,-0.029,-0.002,104.0,106.0,102.0,13.4,1505.3,326.6,-0.7,1.8,2470.41,13.32,0.051,124.0
2020-09-22T07:43:02,42.805,6.029,0.021,-0.039,0.013,105.0,105.0,103.0,13.4,1505.3,325.9,-0.7,1.8,2470.369,13.32,0.044,151.7
2020-09-22T07:46:03,42.805,6.029,0.041,-0.031,0.012,105.0,106.0,102.0,13.4,1505.3,323.6,-0.7,1.8,2470.386,13.32,0.051,127.1
2020-09-22T07:49:03,42.805,6.029,0.021,-0.054,-0.013,105.0,106.0,102.0,13.4,1505.3,323.0,-0.7,1.8,2470.389,13.32,0.057,158.8
2020-09-22T07:52:03,42.805,6.029,0.01,-0.046,-0.001,104.0,105.0,103.0,13.4,1505.3,326.1,-0.7,1.8,2470.397,13.32,0.047,167.7
2020-09-22T07:55:03,42.805,6.029,0.023,-0.029,0.022,106.0,106.0,103.0,13.4,1505.3,324.2,-0.7,1.8,2470.436,13.32,0.037,141.6
2020-09-22T07:58:03,42.805,6.029,0.027,-0.038,0.019,105.0,106.0,102.0,13.4,1505.3,325.4,-0.7,1.8,2470.386,13.32,0.046,144.6
2020-09-22T08:04:03,42.805,6.029,0.016,-0.03,-0.026,104.0,106.0,102.0,13.3,1505.2,324.5,-0.7,1.8,2470.498,13.3,0.034,151.9
2020-09-22T08:07:03,42.805,6.029,0.045,-0.055,-0.023,103.0,107.0,103.0,13.4,1505.3,327.0,-0.7,1.8,2470.457,13.31,0.071,140.7
2020-09-22T08:10:03,42.805,6.029,0.036,-0.021,0.013,104.0,106.0,102.0,13.4,1505.3,326.4,-0.7,1.8,2470.455,13.32,0.041,120.3
2020-09-22T08:13:03,42.805,6.029,0.018,-0.03,-0.016,105.0,106.0,101.0,13.3,1505.3,327.0,-0.7,1.8,2470.435,13.32,0.034,149.0
2020-09-22T08:16:03,42.805,6.029,-0.019,-0.02,-0.028,104.0,107.0,102.0,13.4,1505.3,327.5,-0.7,1.8,2470.469,13.32,0.027,223.5
2020-09-22T08:19:03,42.805,6.029,0.015,-0.02,0.023,105.0,106.0,102.0,13.3,1505.3,324.1,-0.7,1.8,2470.462,13.32,0.025,143.1
2020-09-22T08:22:03,42.805,6.029,0.032,-0.034,-0.007,103.0,106.0,102.0,13.4,1505.3,323.5,-0.7,1.8,2470.464,13.32,0.046,136.7
2020-09-22T08:25:03,42.805,6.029,0.008,-0.022,0.009,104.0,106.0,103.0,13.4,1505.3,325.3,-0.7,1.8,2470.466,13.32,0.023,160.0
2020-09-22T08:28:03,42.805,6.029,0.017,-0.025,-0.029,105.0,106.0,102.0,13.3,1505.3,328.2,-0.7,1.8,2470.421,13.32,0.03,145.8
2020-09-22T08:31:05,42.805,6.029,0.022,-0.03,-0.003,105.0,108.0,101.0,13.4,1505.3,325.1,-0.7,1.8,2470.421,13.32,0.037,143.7
2020-09-22T08:34:03,42.805,6.029,0.014,-0.042,-0.011,107.0,106.0,102.0,13.4,1505.3,323.9,-0.7,1.8,2470.43,13.32,0.044,161.6
2020-09-22T08:37:03,42.805,6.029,0.022,-0.048,0.008,104.0,106.0,102.0,13.3,1505.3,327.1,-0.7,1.8,2470.435,13.32,0.052,155.4
2020-09-22T08:40:03,42.805,6.029,-0.01,-0.028,0.007,104.0,105.0,103.0,13.3,1505.3,324.4,-0.7,1.8,2470.453,13.32,0.029,199.6
2020-09-22T08:43:02,42.805,6.029,0.026,-0.044,-0.053,105.0,105.0,102.0,13.4,1505.3,323.2,-0.7,1.8,2470.426,13.32,0.051,149.4
2020-09-22T08:46:03,42.805,6.029,0.015,-0.029,-0.017,104.0,106.0,102.0,13.4,1505.3,323.5,-0.7,1.8,2470.442,13.32,0.032,152.6
2020-09-22T08:49:03,42.805,6.029,0.015,-0.027,0.001,105.0,107.0,102.0,13.3,1505.3,324.2,-0.7,1.8,2470.469,13.32,0.03,150.9
2020-09-22T08:52:03,42.805,6.029,0.023,-0.042,-0.011,106.0,106.0,102.0,13.4,1505.3,327.2,-0.7,1.8,2470.422,13.32,0.047,151.3
2020-09-22T08:55:03,42.805,6.029,0.022,-0.05,-0.02,105.0,106.0,102.0,13.4,1505.3,324.7,-0.7,1.9,2470.486,13.32,0.054,156.3
2020-09-22T08:58:03,42.805,6.029,0.0,-0.037,-0.032,105.0,106.0,102.0,13.3,1505.3,326.4,-0.7,1.8,2470.474,13.32,0.037,180.0
2020-09-22T09:04:03,42.805,6.029,0.022,-0.024,0.008,106.0,105.0,103.0,13.4,1505.3,326.4,-0.8,1.8,2470.526,13.31,0.032,137.5
2020-09-22T09:07:03,42.805,6.029,0.018,-0.039,-0.007,104.0,104.0,103.0,13.4,1505.3,326.8,-0.7,1.9,2470.46,13.31,0.042,155.2
2020-09-22T09:10:03,42.805,6.029,0.039,-0.021,-0.006,106.0,105.0,101.0,13.4,1505.3,323.8,-0.7,1.8,2470.479,13.32,0.044,118.3
2020-09-22T09:13:03,42.805,6.029,0.001,-0.017,0.001,106.0,107.0,102.0,13.4,1505.3,323.5,-0.7,1.9,2470.479,13.32,0.017,176.6
2020-09-22T09:16:02,42.805,6.029,0.024,-0.018,0.017,105.0,105.0,103.0,13.4,1505.3,323.0,-0.7,1.8,2470.511,13.32,0.03,126.9
2020-09-22T09:19:03,42.805,6.029,0.003,-0.027,-0.017,106.0,105.0,104.0,13.3,1505.3,324.9,-0.7,1.8,2470.46,13.32,0.027,173.7
2020-09-22T09:22:03,42.805,6.029,0.016,-0.031,-0.003,105.0,108.0,102.0,13.4,1505.3,323.6,-0.7,1.8,2470.452,13.32,0.034,152.7
2020-09-22T09:25:03,42.805,6.029,0.023,-0.04,0.0,104.0,107.0,102.0,13.4,1505.3,325.4,-0.7,1.8,2470.485,13.32,0.046,150.1
2020-09-22T09:28:03,42.805,6.029,0.029,-0.044,0.0,104.0,105.0,102.0,13.4,1505.3,323.0,-0.7,1.8,2470.482,13.32,0.052,146.6
2020-09-22T09:31:03,42.805,6.029,0.012,-0.03,0.005,104.0,105.0,103.0,13.3,1505.3,326.0,-0.8,1.8,2470.506,13.32,0.032,158.2
2020-09-22T09:34:03,42.805,6.029,0.018,-0.057,-0.015,103.0,104.0,103.0,13.4,1505.3,327.6,-0.7,1.8,2470.474,13.32,0.059,162.5
2020-09-22T09:37:03,42.805,6.029,0.011,-0.034,-0.016,106.0,105.0,102.0,13.4,1505.3,325.8,-0.7,1.8,2470.537,13.32,0.035,162.1
2020-09-22T09:40:03,42.805,6.029,0.013,-0.046,0.005,105.0,104.0,101.0,13.4,1505.3,327.9,-0.7,1.8,2470.506,13.32,0.047,164.2
2020-09-22T09:43:03,42.805,6.029,0.032,-0.022,0.036,105.0,105.0,103.0,13.4,1505.3,326.8,-0.7,1.8,2470.505,13.33,0.038,124.5
2020-09-22T09:46:03,42.805,6.029,0.028,-0.034,0.015,104.0,105.0,102.0,13.3,1505.3,327.6,-0.7,1.8,2470.455,13.33,0.044,140.5
2020-09-22T09:49:03,42.805,6.029,0.024,-0.031,-0.001,104.0,105.0,103.0,13.3,1505.3,326.6,-0.7,1.8,2470.469,13.32,0.039,142.3
2020-09-22T09:52:02,42.805,6.029,0.032,-0.041,0.0,105.0,106.0,102.0,13.4,1505.3,325.4,-0.7,1.8,2470.499,13.33,0.052,142.0
2020-09-22T09:55:03,42.805,6.029,0.04,-0.038,0.045,106.0,106.0,103.0,13.4,1505.3,323.7,-0.7,1.8,2470.467,13.32,0.055,133.5
2020-09-22T09:58:02,42.805,6.029,-0.005,-0.035,-0.031,104.0,106.0,103.0,13.4,1505.3,325.0,-0.7,1.9,2470.489,13.33,0.035,188.1
2020-09-22T10:04:03,42.805,6.029,0.022,-0.036,-0.006,105.0,106.0,102.0,13.3,1505.3,324.0,-0.8,1.8,2470.505,13.31,0.042,148.6